COSMOS 2251 DEB, 37528

Orbit data source: Space-Track

COSMOS 2251 DEB, 37528 is space debris in LEO originally from a launch on Wed, 16 Jun 1993 UTC launched from the Plesetsk Missile And Space Complex (PKMTR). The debris from Iridium 33, an American commercial communications satellite, has been tracked extensively since its accidental collision with the defunct Russian satellite Cosmos 2251 in 2009. This event, occurring at high speed in low Earth orbit (LEO), generated thousands of pieces of space debris, significantly increasing the risk of further collisions. The Iridium 33 debris cloud has impacted space traffic management and orbital debris mitigation strategies, making it a subject of ongoing study in space situational awareness.

Loading next visibility...
Identifier
37528, 1993-036BNH
Orbit
LEO
Country
Flag of CISCIS
Related business
Manufacturer
Unknown
Mission
Spacecraft
Bus & Motor
Unknown
Mass
Unknown
Launch date (UTC)
1993-06-16 (33 years ago)
Launch vehicle
Unknown
Launch site
Plesetsk Missile And Space Complex (PKMTR)
Object type
Payload
Rocket body
Debris
Shape & HBR
Unknown shape, 0.1 m
Radar Cross Section
Small (<0.1 m²)

Expand to show TLE details & history
Last TLE update: 17 hours ago

TLE from 17 hours ago
0 COSMOS 2251 DEB
1 37528U 93036BNH 26175.11342434  .00000967  00000-0  25027-3 0  9990
2 37528  74.0361 118.5336 0021137 219.4430 140.5194 14.51113710887351
Epoch: 2026-06-24T02:43Z
TLE epoch observation values (Epoch: 2026-06-24T02:43:19.862Z)
Latitude
0.00002°
Longitude
165.42555°
Altitude
736.241 km
Speed
7.481 km/s
True Right ascension
07h 54m 08s
True Declination
0° 00' 00"
Sunlit
Object was in daylight at epoch
Visualization orbit readout
Latitude
Unknown
Longitude
Unknown
Altitude
Unknown
Speed
Unknown
Apparent Right ascension
Unknown
Apparent Declination
Unknown
Sunlit
N/A
Visualization observer readout
Local Sidereal Time
07:06:43
Azimuth
Unknown
Elevation
Unknown
Doppler factor
Unknown
Orbital elements
Apogee altitude
734.623 km
Perigee altitude
704.618 km
Semi-major axis
7,097.758 km
Eccentricity
0.00211
Inclination
74.0361°
RAAN
118.5336°
Arg. of periapsis
219.443°
True anomaly
140.67309°
Mean anomaly
140.5194°
Eccentric anomaly
140.59628°
Mean motion
3.62962 °/min
Orbital period
99.18 mins
BSTAR
0.00025027

Documentation

Showing up to 5 results
|